Location: Anumalkud?ru
(16.4847°N, 80.6636°E)
Time: 22:36:50
(UTC+00:00)

Cosmos 2369 - Pass Details

Date: 11 April 2026
Orbit: 838 x 855 km, 71.0° (Epoch: 9 May)

Event Time Altitude Azimuth Distance (km) Brightness Sun altitude
Rises 23:32:55 0° 326° (NW) 3,407 6.6 -13.0°
Reaches altitude 10° 23:35:39 10° 315° (NW) 2,473 5.8 -12.3°
Maximum altitude 23:40:27 29° 257° (WSW) 1,518 4.5 -11.2°
Drops below altitude 10° 23:45:17 10° 199° (SSW) 2,475 5.8 -10.1°
Sets 23:48:02 0° 188° (S) 3,410 6.7 -9.4°
